| time (UTC) | temp F | wind direction | speed knots | gust knots | rain 1hr in | rain 24hr in | rain mn in | humidity % | barometer mb |
| 20260504050004 | 44 | 123 | 0.0 | 0.0 | 0.00 | 0.00 | 0.00 | 74 | 1016.1 |
| 20260504044501 | 45 | 122 | 0.0 | 0.0 | 0.00 | 0.00 | 0.00 | 74 | 1016.1 |
| 20260504043001 | 44 | 138 | 0.0 | 0.0 | 0.00 | 0.00 | 0.00 | 75 | 1016.0 |
| 20260504040004 | 46 | 138 | 0.0 | 0.0 | 0.00 | 0.00 | 0.00 | 72 | 1015.7 |
| 20260504033003 | 46 | 138 | 0.0 | 0.0 | 0.00 | 0.00 | 0.00 | 72 | 1015.7 |
| 20260504031502 | 45 | 124 | 0.0 | 0.0 | 0.00 | 0.00 | 0.00 | 72 | 1015.5 |
| 20260504030004 | 46 | 123 | 0.0 | 0.0 | 0.00 | 0.00 | 0.00 | 71 | 1015.4 |
| 20260504024502 | 46 | 137 | 0.0 | 0.0 | 0.00 | 0.00 | 0.00 | 70 | 1015.7 |
| 20260504023003 | 48 | 137 | 0.0 | 0.0 | 0.00 | 0.00 | 0.00 | 68 | 1015.6 |
| 20260504021503 | 47 | 141 | 0.0 | 0.9 | 0.00 | 0.00 | 0.00 | 69 | 1015.7 |
| 20260504020003 | 47 | 141 | 0.0 | 0.0 | 0.00 | 0.00 | 0.00 | 69 | 1015.4 |
| 20260504014501 | 49 | 141 | 0.0 | 0.0 | 0.00 | 0.00 | 0.00 | 64 | 1015.2 |
| 20260504013001 | 50 | 141 | 0.0 | 0.9 | 0.00 | 0.00 | 0.00 | 62 | 1015.3 |
| 20260504011501 | 51 | 141 | 0.0 | 0.9 | 0.00 | 0.00 | 0.00 | 60 | 1015.0 |
| 20260504010003 | 52 | 141 | 0.0 | 0.9 | 0.00 | 0.00 | 0.00 | 58 | 1014.9 |
| 20260504004505 | 53 | 141 | 0.0 | 0.9 | 0.00 | 0.00 | 0.00 | 55 | 1014.7 |
| 20260504003001 | 55 | 124 | 0.9 | 0.9 | 0.00 | 0.00 | 0.00 | 53 | 1014.5 |
| 20260504001502 | 57 | 146 | 0.9 | 1.7 | 0.00 | 0.00 | 0.00 | 48 | 1014.4 |
| 20260504000003 | 60 | 253 | 0.9 | 2.6 | 0.00 | 0.00 | 0.00 | 44 | 1014.4 |
| 20260503234501 | 62 | 262 | 1.7 | 3.5 | 0.00 | 0.00 | 0.00 | 43 | 1014.3 |
| 20260503233002 | 63 | 255 | 0.9 | 3.5 | 0.00 | 0.00 | 0.00 | 40 | 1014.2 |
| 20260503231500 | 63 | 221 | 1.7 | 5.2 | 0.00 | 0.00 | 0.00 | 40 | 1014.2 |
| 20260503230004 | 64 | 162 | 1.7 | 4.3 | 0.00 | 0.00 | 0.00 | 40 | 1014.0 |
| 20260503223000 | 64 | 231 | 1.7 | 7.0 | 0.00 | 0.00 | 0.00 | 41 | 1014.0 |
| 20260503221500 | 64 | 185 | 2.6 | 7.0 | 0.00 | 0.00 | 0.00 | 40 | 1014.0 |
| 20260503220002 | 65 | 88 | 1.7 | 5.2 | 0.00 | 0.00 | 0.00 | 38 | 1014.0 |
| 20260503214500 | 65 | 292 | 4.3 | 7.8 | 0.00 | 0.00 | 0.00 | 40 | 1014.0 |
| 20260503211500 | 66 | 8 | 2.6 | 10.4 | 0.00 | 0.00 | 0.00 | 37 | 1014.2 |
| 20260503210003 | 67 | 293 | 1.7 | 8.7 | 0.00 | 0.00 | 0.00 | 36 | 1014.2 |
| 20260503204500 | 65 | 171 | 3.5 | 10.4 | 0.00 | 0.00 | 0.00 | 39 | 1014.3 |
| 20260503203000 | 66 | 161 | 3.5 | 8.7 | 0.00 | 0.00 | 0.00 | 36 | 1014.4 |
| 20260503201500 | 65 | 225 | 2.6 | 7.0 | 0.00 | 0.00 | 0.00 | 33 | 1014.6 |
| 20260503200002 | 65 | 287 | 2.6 | 7.8 | 0.00 | 0.00 | 0.00 | 35 | 1014.8 |
| 20260503194459 | 65 | 260 | 2.6 | 7.0 | 0.00 | 0.00 | 0.00 | 34 | 1015.0 |
| 20260503192959 | 64 | 122 | 3.5 | 7.8 | 0.00 | 0.00 | 0.00 | 34 | 1015.2 |
| 20260503191500 | 64 | 340 | 1.7 | 5.2 | 0.00 | 0.00 | 0.00 | 37 | 1015.4 |
| 20260503190003 | 63 | 261 | 3.5 | 7.0 | 0.00 | 0.00 | 0.00 | 36 | 1015.4 |
| 20260503184500 | 62 | 322 | 5.2 | 13.9 | 0.00 | 0.00 | 0.00 | 34 | 1015.7 |
| 20260503183000 | 63 | 294 | 2.6 | 7.8 | 0.00 | 0.00 | 0.00 | 38 | 1015.9 |
| 20260503181459 | 62 | 281 | 2.6 | 5.2 | 0.00 | 0.00 | 0.00 | 36 | 1016.1 |
| 20260503180001 | 60 | 212 | 2.6 | 8.7 | 0.00 | 0.00 | 0.00 | 38 | 1016.1 |
| 20260503174501 | 61 | 264 | 1.7 | 5.2 | 0.00 | 0.00 | 0.00 | 45 | 1016.3 |
| 20260503173000 | 60 | 26 | 2.6 | 7.8 | 0.00 | 0.00 | 0.00 | 42 | 1016.5 |
| 20260503171500 | 59 | 269 | 1.7 | 4.3 | 0.00 | 0.00 | 0.00 | 44 | 1016.8 |
| 20260503081458 | 40 | 119 | 0.0 | 0.9 | 0.00 | 0.00 | 0.00 | 82 | 1015.4 |
| 20260503071458 | 39 | 120 | 0.0 | 0.0 | 0.00 | 0.00 | 0.00 | 81 | 1015.0 |
| 20260503054501 | 44 | 119 | 0.0 | 0.9 | 0.00 | 0.00 | 0.00 | 73 | 1014.8 |
| 20260503053001 | 44 | 119 | 0.9 | 0.9 | 0.00 | 0.00 | 0.00 | 73 | 1014.7 |